EOS-7 (55562 NORAD) Tracking and Keplerian Element Data

This shows tracking and keplerian element data for the satellite.

Feedback or suggestion? Click here.




ElementValue
Catalog55562
NameEOS-7
Epoch Orbit1327
Epoch Day127.14703616
Epoch Year2023
RAAN292.8438
Inclination37.1844
Eccentricity0.0003962
Argument of Perigee349.0816
Mean Anonmoly10.9857
Mean Motion15.44138535
Decay Rate0.00034722
L11 55562U 23019A 23127.14703616 .00034722 00000+0 73687-3 0 9992
L22 55562 37.1844 292.8438 0003962 349.0816 10.9857 15.44138535 13271



Live tracking and technical data element details for EOS-7 (NORAD 55562). EOS-7 can be tracked NOW for your location showing map with azimuth and elevation plus other details from your city location.







IsCatalogInMostPopularTable: catalog: 55562, numindb: -1

Insert: records affected: 1


GetName: 55562 EOS-7

Hit Count: inserted at: Mon, 05 Jun 2023 20:32:51 GMT